When you browse on this site, cookies collect data to enhance your experience and personalize the content and advertising you see.
Visit our Privacy Policy to learn more. By continuing to use the site, you agree to this use of cookies and data.
  • In Denmark
  • List of Countries
  • For 7 days
  • Water Temperature
  • Weather Map
  • Weather Widgets
  • user-avatar
    Login

    Hourly Weather Santa Cruz de Tenerife

    Today, 13 December, Friday

    Time Temperature Precipitation Wind Pressure Humidity
    00:00 +15°C° 0 mm 8 mps 761 mmHg 89%
    01:00 +15°C° 0 mm 8 mps 761 mmHg 89%
    02:00 +15°C° 0 mm 8 mps 761 mmHg 88%
    03:00 +15°C° 0 mm 8 mps 761 mmHg 80%
    04:00 +13°C° 0 mm 8 mps 760 mmHg 71%
    05:00 +13°C° 0 mm 8 mps 761 mmHg 66%
    06:00 +15°C° 0 mm 8 mps 761 mmHg 69%
    07:00 +15°C° 0 mm 8 mps 761 mmHg 71%
    08:00 +16°C° 0 mm 8 mps 761 mmHg 74%
    09:00 +17°C° 0 mm 8 mps 761 mmHg 70%
    10:00 +17°C° 0 mm 8 mps 761 mmHg 66%
    11:00 +20°C° 0 mm 7 mps 761 mmHg 64%
    12:00 +20°C° 0 mm 7 mps 760 mmHg 63%
    13:00 +20°C° 0 mm 7 mps 760 mmHg 61%
    14:00 +21°C° 0 mm 6 mps 759 mmHg 60%
    15:00 +20°C° 0 mm 7 mps 759 mmHg 67%
    16:00 +18°C° 0 mm 7 mps 759 mmHg 73%
    17:00 +18°C° 0 mm 7 mps 759 mmHg 80%
    18:00 +17°C° 0 mm 6 mps 759 mmHg 81%
    19:00 +17°C° 0 mm 6 mps 759 mmHg 83%
    20:00 +16°C° 0 mm 6 mps 759 mmHg 84%
    21:00 +16°C° 0 mm 6 mps 759 mmHg 84%
    22:00 +15°C° 0 mm 6 mps 759 mmHg 83%
    23:00 +15°C° 0 mm 5 mps 759 mmHg 82%

    Tomorrow, 14 December, Saturday

    Time Temperature Precipitation Wind Pressure Humidity
    00:00 +15°C° 0 mm 5 mps 758 mmHg 86%
    01:00 +15°C° 0 mm 5 mps 758 mmHg 89%
    02:00 +16°C° 0 mm 5 mps 758 mmHg 92%
    03:00 +16°C° 0 mm 5 mps 757 mmHg 92%
    04:00 +15°C° 0 mm 4 mps 757 mmHg 91%
    05:00 +15°C° 0 mm 4 mps 757 mmHg 90%
    06:00 +17°C° 0 mm 4 mps 757 mmHg 87%
    07:00 +18°C° 0 mm 4 mps 757 mmHg 84%
    08:00 +18°C° 0 mm 4 mps 757 mmHg 81%
    09:00 +19°C° 0 mm 4 mps 757 mmHg 80%
    10:00 +20°C° 0 mm 4 mps 758 mmHg 79%
    11:00 +21°C° 0 mm 4 mps 758 mmHg 78%
    12:00 +21°C° 0 mm 3 mps 757 mmHg 78%
    13:00 +21°C° 0 mm 3 mps 756 mmHg 77%
    14:00 +21°C° 0 mm 3 mps 756 mmHg 77%
    15:00 +21°C° 0 mm 3 mps 756 mmHg 78%
    16:00 +20°C° 0 mm 3 mps 756 mmHg 79%
    17:00 +20°C° 0 mm 3 mps 756 mmHg 80%
    18:00 +19°C° 0 mm 3 mps 756 mmHg 81%
    19:00 +19°C° 0 mm 3 mps 756 mmHg 82%
    20:00 +18°C° 0 mm 3 mps 756 mmHg 83%
    21:00 +18°C° 0 mm 2 mps 756 mmHg 83%
    22:00 +18°C° 0 mm 2 mps 756 mmHg 83%
    23:00 +17°C° 0 mm 2 mps 756 mmHg 83%

    Day after tomorrow, 15 December, Sunday

    Time Temperature Precipitation Wind Pressure Humidity
    00:00 +17°C° 0 mm 2 mps 756 mmHg 86%
    01:00 +17°C° 0 mm 2 mps 755 mmHg 88%
    02:00 +17°C° 0 mm 2 mps 755 mmHg 91%
    03:00 +17°C° 0 mm 2 mps 755 mmHg 90%
    04:00 +16°C° 0 mm 1 mps 754 mmHg 88%
    05:00 +16°C° 0 mm 1 mps 754 mmHg 87%
    06:00 +18°C° 0 mm 1 mps 754 mmHg 85%
    07:00 +19°C° 0 mm 1 mps 754 mmHg 84%
    08:00 +19°C° 0 mm 1 mps 755 mmHg 82%
    09:00 +20°C° 0 mm 1 mps 755 mmHg 77%
    10:00 +21°C° 0 mm 1 mps 755 mmHg 72%
    11:00 +22°C° 0 mm 1 mps 754 mmHg 67%
    12:00 +22°C° 0 mm 1 mps 754 mmHg 70%
    13:00 +22°C° 0 mm 1 mps 753 mmHg 74%
    14:00 +21°C° 0 mm 2 mps 753 mmHg 78%
    15:00 +20°C° 0 mm 2 mps 753 mmHg 80%
    16:00 +20°C° 0 mm 3 mps 753 mmHg 83%
    17:00 +19°C° 0 mm 3 mps 752 mmHg 85%
    18:00 +19°C° 0 mm 3 mps 753 mmHg 83%
    19:00 +19°C° 0 mm 3 mps 753 mmHg 82%
    20:00 +18°C° 0 mm 4 mps 753 mmHg 80%
    21:00 +18°C° 0 mm 4 mps 753 mmHg 78%
    22:00 +17°C° 0 mm 4 mps 753 mmHg 76%
    23:00 +17°C° 0 mm 4 mps 753 mmHg 74%

    16 December, Monday

    Time Temperature Precipitation Wind Pressure Humidity
    00:00 +15°C° 0 mm 4 mps 752 mmHg 70%
    01:00 +15°C° 0 mm 5 mps 752 mmHg 66%
    02:00 +15°C° 0 mm 5 mps 752 mmHg 62%
    03:00 +15°C° 0.2 mm 5 mps 752 mmHg 71%
    04:00 +15°C° 0.2 mm 5 mps 752 mmHg 80%
    05:00 +15°C° 0.2 mm 5 mps 752 mmHg 89%
    06:00 +16°C° 0.1 mm 5 mps 752 mmHg 89%
    07:00 +16°C° 0.1 mm 6 mps 752 mmHg 89%
    08:00 +16°C° 0.1 mm 7 mps 753 mmHg 88%
    09:00 +17°C° 0 mm 7 mps 753 mmHg 84%
    10:00 +17°C° 0 mm 7 mps 753 mmHg 79%
    11:00 +18°C° 0 mm 7 mps 754 mmHg 74%
    12:00 +18°C° 0 mm 7 mps 753 mmHg 71%
    13:00 +18°C° 0 mm 7 mps 753 mmHg 68%
    14:00 +18°C° 0 mm 7 mps 752 mmHg 64%
    15:00 +17°C° 0 mm 7 mps 752 mmHg 65%
    16:00 +17°C° 0 mm 8 mps 752 mmHg 65%
    17:00 +16°C° 0 mm 8 mps 752 mmHg 66%
    18:00 +15°C° 0.1 mm 8 mps 753 mmHg 70%
    19:00 +15°C° 0.1 mm 9 mps 753 mmHg 74%
    20:00 +13°C° 0.1 mm 9 mps 753 mmHg 78%
    21:00 +13°C° 0.1 mm 9 mps 754 mmHg 76%
    22:00 +13°C° 0.1 mm 9 mps 754 mmHg 74%
    23:00 +13°C° 0.1 mm 9 mps 754 mmHg 72%

    17 December, Tuesday

    Time Temperature Precipitation Wind Pressure Humidity
    00:00 +13°C° 0.1 mm 8 mps 754 mmHg 76%
    01:00 +13°C° 0.1 mm 8 mps 754 mmHg 80%
    02:00 +13°C° 0.1 mm 8 mps 754 mmHg 83%
    03:00 +13°C° 0 mm 8 mps 754 mmHg 80%
    04:00 +13°C° 0 mm 8 mps 754 mmHg 76%
    05:00 +12°C° 0 mm 7 mps 754 mmHg 72%
    06:00 +14°C° 0 mm 7 mps 755 mmHg 67%
    07:00 +15°C° 0 mm 6 mps 755 mmHg 62%
    08:00 +16°C° 0 mm 6 mps 755 mmHg 56%
    09:00 +17°C° 0 mm 6 mps 756 mmHg 56%
    10:00 +19°C° 0 mm 5 mps 756 mmHg 55%
    11:00 +19°C° 0 mm 5 mps 757 mmHg 55%
    12:00 +20°C° 0 mm 5 mps 756 mmHg 57%
    13:00 +20°C° 0 mm 5 mps 756 mmHg 59%
    14:00 +20°C° 0 mm 5 mps 755 mmHg 61%
    15:00 +19°C° 0 mm 5 mps 755 mmHg 66%
    16:00 +17°C° 0 mm 5 mps 756 mmHg 71%
    17:00 +16°C° 0 mm 5 mps 756 mmHg 75%
    18:00 +16°C° 0 mm 5 mps 756 mmHg 76%
    19:00 +15°C° 0 mm 4 mps 756 mmHg 77%
    20:00 +15°C° 0 mm 4 mps 757 mmHg 78%
    21:00 +15°C° 0 mm 4 mps 757 mmHg 80%
    22:00 +16°C° 0 mm 3 mps 757 mmHg 81%
    23:00 +14°C° 0 mm 3 mps 757 mmHg 83%

    18 December, Wednesday

    Time Temperature Precipitation Wind Pressure Humidity
    00:00 +14°C° 0 mm 3 mps 757 mmHg 84%
    01:00 +15°C° 0 mm 2 mps 756 mmHg 84%
    02:00 +15°C° 0 mm 1 mps 756 mmHg 84%
    03:00 +14°C° 0 mm 1 mps 756 mmHg 85%
    04:00 +14°C° 0 mm 1 mps 756 mmHg 86%
    05:00 +13°C° 0 mm 1 mps 756 mmHg 87%
    06:00 +15°C° 0 mm 1 mps 757 mmHg 81%
    07:00 +16°C° 0 mm 1 mps 757 mmHg 76%
    08:00 +18°C° 0 mm 1 mps 757 mmHg 70%
    09:00 +19°C° 0 mm 1 mps 758 mmHg 66%
    10:00 +19°C° 0 mm 2 mps 758 mmHg 61%
    11:00 +20°C° 0 mm 2 mps 758 mmHg 57%
    12:00 +20°C° 0 mm 2 mps 758 mmHg 60%
    13:00 +20°C° 0 mm 2 mps 757 mmHg 63%
    14:00 +20°C° 0 mm 2 mps 757 mmHg 65%
    15:00 +20°C° 0 mm 2 mps 757 mmHg 69%
    16:00 +20°C° 0 mm 1 mps 757 mmHg 73%
    17:00 +20°C° 0 mm 1 mps 757 mmHg 77%
    18:00 +19°C° 0 mm 1 mps 758 mmHg 78%
    19:00 +18°C° 0 mm 1 mps 758 mmHg 79%
    20:00 +18°C° 0 mm 1 mps 758 mmHg 80%
    21:00 +18°C° 0 mm 1 mps 758 mmHg 76%
    22:00 +18°C° 0 mm 1 mps 758 mmHg 73%
    23:00 +18°C° 0 mm 1 mps 758 mmHg 70%
    Show more